TimeEST,TemperatureF,Dew PointF,Humidity,Sea Level PressureIn,VisibilityMPH,Wind Direction,Wind SpeedMPH,Gust SpeedMPH,PrecipitationIn,Events,Conditions,WindDirDegrees,DateUTC
12:15 AM,26.6,24.8,93,30.20,10.0,Calm,Calm,-,N/A,,Clear,0,2013-01-04 05:15:00
12:35 AM,28.4,24.8,86,30.19,10.0,ESE,3.5,-,N/A,,Clear,120,2013-01-04 05:35:00
12:55 AM,26.6,24.8,93,30.19,10.0,ESE,5.8,-,N/A,,Clear,120,2013-01-04 05:55:00
1:15 AM,26.6,24.8,93,30.18,10.0,ESE,5.8,-,N/A,,Clear,120,2013-01-04 06:15:00
1:35 AM,26.6,24.8,93,30.18,10.0,ESE,3.5,-,N/A,,Clear,120,2013-01-04 06:35:00
1:55 AM,28.4,24.8,86,30.19,10.0,ESE,6.9,-,N/A,,Clear,120,2013-01-04 06:55:00
2:15 AM,30.2,26.6,86,30.19,10.0,ESE,4.6,-,N/A,,Clear,120,2013-01-04 07:15:00
2:35 AM,30.2,26.6,86,30.20,10.0,ESE,5.8,-,N/A,,Clear,120,2013-01-04 07:35:00
2:55 AM,30.2,26.6,86,30.20,10.0,ESE,4.6,-,N/A,,Clear,120,2013-01-04 07:55:00
3:15 AM,32.0,28.4,87,30.20,10.0,ESE,4.6,-,N/A,,Clear,120,2013-01-04 08:15:00
3:35 AM,28.4,26.6,93,30.20,10.0,ESE,4.6,-,N/A,,Clear,120,2013-01-04 08:35:00
3:55 AM,32.0,28.4,87,30.20,10.0,ESE,4.6,-,N/A,,Clear,120,2013-01-04 08:55:00
4:15 AM,32.0,28.4,87,30.20,10.0,ESE,4.6,-,N/A,,Clear,120,2013-01-04 09:15:00
4:37 AM,32.0,28.4,87,30.21,10.0,ESE,5.8,-,N/A,,Clear,120,2013-01-04 09:37:00
4:55 AM,30.2,26.6,86,30.21,10.0,ESE,3.5,-,N/A,,Clear,120,2013-01-04 09:55:00
5:15 AM,32.0,28.4,87,30.20,10.0,ESE,3.5,-,N/A,,Clear,120,2013-01-04 10:15:00
5:35 AM,28.4,26.6,93,30.20,10.0,ESE,3.5,-,N/A,,Clear,120,2013-01-04 10:35:00
5:55 AM,28.4,24.8,86,30.21,10.0,ESE,3.5,-,N/A,,Clear,120,2013-01-04 10:55:00
6:15 AM,28.4,26.6,93,30.21,7.0,Calm,Calm,-,N/A,,Clear,0,2013-01-04 11:15:00
6:35 AM,28.4,26.6,93,30.22,7.0,ESE,4.6,-,N/A,,Clear,120,2013-01-04 11:35:00
6:56 AM,26.6,24.8,93,30.22,7.0,ESE,3.5,-,N/A,,Clear,120,2013-01-04 11:56:00
7:15 AM,26.6,24.8,93,30.23,5.0,Calm,Calm,-,N/A,,Clear,0,2013-01-04 12:15:00
7:35 AM,26.6,24.8,93,30.23,4.0,Calm,Calm,-,N/A,,Clear,0,2013-01-04 12:35:00
7:55 AM,26.6,26.6,100,30.23,5.0,Calm,Calm,-,N/A,,Clear,0,2013-01-04 12:55:00
8:15 AM,28.4,26.6,93,30.23,5.0,Calm,Calm,-,N/A,,Clear,0,2013-01-04 13:15:00
8:35 AM,30.2,28.4,93,30.23,7.0,ESE,3.5,-,N/A,,Clear,120,2013-01-04 13:35:00
8:55 AM,33.8,30.2,87,30.24,10.0,Calm,Calm,-,N/A,,Clear,0,2013-01-04 13:55:00
9:15 AM,37.4,28.4,70,30.24,10.0,ESE,4.6,-,N/A,,Clear,120,2013-01-04 14:15:00
9:55 AM,39.2,28.4,65,30.24,10.0,ESE,5.8,-,N/A,,Clear,120,2013-01-04 14:55:00
10:15 AM,39.2,28.4,65,30.23,10.0,ESE,6.9,-,N/A,,Clear,120,2013-01-04 15:15:00
10:35 AM,41.0,26.6,57,30.23,10.0,ESE,3.5,-,N/A,,Clear,120,2013-01-04 15:35:00
10:55 AM,41.0,24.8,53,30.22,10.0,ESE,3.5,-,N/A,,Clear,120,2013-01-04 15:55:00
11:15 AM,41.0,24.8,53,30.22,10.0,ESE,8.1,-,N/A,,Clear,120,2013-01-04 16:15:00
11:55 AM,42.8,24.8,49,30.19,10.0,ESE,5.8,-,N/A,,Clear,120,2013-01-04 16:55:00
12:15 PM,42.8,26.6,53,30.18,10.0,ESE,8.1,-,N/A,,Clear,120,2013-01-04 17:15:00
12:35 PM,44.6,21.2,39,30.17,10.0,ESE,5.8,-,N/A,,Clear,120,2013-01-04 17:35:00
12:55 PM,44.6,24.8,46,30.16,10.0,ESE,8.1,-,N/A,,Clear,120,2013-01-04 17:55:00
1:15 PM,42.8,26.6,53,30.15,10.0,ESE,9.2,-,N/A,,Clear,120,2013-01-04 18:15:00
1:35 PM,44.6,21.2,39,30.14,10.0,ESE,9.2,-,N/A,,Clear,110,2013-01-04 18:35:00
1:55 PM,44.6,21.2,39,30.14,10.0,ESE,10.4,-,N/A,,Clear,110,2013-01-04 18:55:00
2:15 PM,44.6,23.0,43,30.14,10.0,ESE,9.2,-,N/A,,Clear,110,2013-01-04 19:15:00
2:35 PM,44.6,21.2,39,30.14,10.0,ESE,8.1,-,N/A,,Clear,110,2013-01-04 19:35:00
2:55 PM,44.6,23.0,43,30.14,10.0,ESE,9.2,-,N/A,,Clear,120,2013-01-04 19:55:00
3:17 PM,44.6,23.0,43,30.13,10.0,ESE,4.6,-,N/A,,Clear,120,2013-01-04 20:17:00
3:35 PM,44.6,24.8,46,30.13,10.0,ESE,5.8,-,N/A,,Clear,120,2013-01-04 20:35:00
3:55 PM,42.8,24.8,49,30.13,10.0,ESE,5.8,-,N/A,,Clear,120,2013-01-04 20:55:00
4:15 PM,42.8,23.0,46,30.13,10.0,ESE,3.5,-,N/A,,Clear,120,2013-01-04 21:15:00
4:35 PM,42.8,24.8,49,30.12,10.0,ESE,5.8,-,N/A,,Clear,120,2013-01-04 21:35:00
4:55 PM,39.2,24.8,56,30.12,10.0,ESE,4.6,-,N/A,,Clear,120,2013-01-04 21:55:00
5:15 PM,39.2,26.6,61,30.12,10.0,ESE,3.5,-,N/A,,Clear,120,2013-01-04 22:15:00
5:35 PM,37.4,26.6,65,30.13,10.0,Calm,Calm,-,N/A,,Clear,0,2013-01-04 22:35:00
5:55 PM,35.6,26.6,70,30.13,10.0,Calm,Calm,-,N/A,,Clear,0,2013-01-04 22:55:00
6:15 PM,35.6,26.6,70,30.14,10.0,Calm,Calm,-,N/A,,Clear,0,2013-01-04 23:15:00
6:35 PM,35.6,26.6,70,30.15,10.0,Calm,Calm,-,N/A,,Clear,0,2013-01-04 23:35:00
6:55 PM,33.8,26.6,75,30.15,10.0,ESE,3.5,-,N/A,,Clear,120,2013-01-04 23:55:00
7:17 PM,33.8,26.6,75,30.16,10.0,ESE,3.5,-,N/A,,Clear,120,2013-01-05 00:17:00
7:36 PM,33.8,26.6,75,30.16,10.0,ESE,3.5,-,N/A,,Clear,120,2013-01-05 00:36:00
7:55 PM,32.0,26.6,80,30.16,10.0,Calm,Calm,-,N/A,,Clear,0,2013-01-05 00:55:00
8:15 PM,33.8,28.4,81,30.16,10.0,ESE,4.6,-,N/A,,Clear,120,2013-01-05 01:15:00
8:35 PM,37.4,28.4,70,30.17,10.0,ESE,6.9,-,N/A,,Clear,120,2013-01-05 01:35:00
8:55 PM,41.0,28.4,61,30.17,10.0,ESE,5.8,-,N/A,,Clear,120,2013-01-05 01:55:00
9:15 PM,42.8,30.2,61,30.17,10.0,ESE,4.6,-,N/A,,Clear,120,2013-01-05 02:15:00
9:35 PM,41.0,28.4,61,-9999,10.0,ESE,4.6,-,N/A,,Clear,120,2013-01-05 02:35:00
9:55 PM,39.2,28.4,65,30.18,10.0,ESE,5.8,-,N/A,,Clear,120,2013-01-05 02:55:00
10:15 PM,41.0,28.4,61,30.19,10.0,ESE,6.9,-,N/A,,Scattered Clouds,120,2013-01-05 03:15:00
10:35 PM,42.8,28.4,57,30.18,10.0,ESE,6.9,-,N/A,,Clear,120,2013-01-05 03:35:00
10:55 PM,42.8,28.4,57,30.19,10.0,ESE,6.9,-,N/A,,Clear,120,2013-01-05 03:55:00
11:15 PM,41.0,28.4,61,30.19,10.0,ESE,6.9,-,N/A,,Clear,120,2013-01-05 04:15:00
11:35 PM,39.2,28.4,65,30.19,10.0,ESE,6.9,-,N/A,,Clear,120,2013-01-05 04:35:00